User: anonymous   Login
Location: Muenchen
(48.1800°N, 11.5800°E)
Time: 12:26:34
(UTC+01:00)
Language:

Cosmos 2233 Rocket - Orbit

View from above orbital plane
View from above orbital plane
View from above satellite
View from above satellite

Ground track
Ground track

The orbit data is extracted from the following two-line orbital elements,

1 22488U 93008B   14302.93321097  .00000030  00000-0  14857-4 0  9822
2 22488 082.9436 073.7341 0025867 041.8094 106.0908 13.77635945 91900
Epoch (UTC): 29 October 2014 22:23:49
Eccentricity: 0.0025867
inclination: 82.9436°
perigee height: 953 km
apogee height: 991 km
right ascension of ascending node: 73.7341°
argument of perigee: 41.8094°
revolutions per day: 13.77635945
mean anomaly at epoch: 106.0908°
orbit number at epoch: 9190

The dashed part of the orbit path shows where the satellite is in the earth's shadow,  

DLR